Location: Aciu?a
(46.2833°N, 22.4500°E)
Time: 12:09:03
(UTC+00:00)

NOSS 3-1 (C) - Pass Details

Date: 25 October 2021
Orbit: 717 x 1491 km, 63.4° (Epoch: 25 November)

Event Time Altitude Azimuth Distance (km) Brightness Sun altitude
Rises 17:28:34 0° 242° (WSW) 3,226 7.2 -21.7°
Reaches altitude 10° 17:30:55 10° 249° (WSW) 2,366 6.4 -22.1°
Maximum altitude 17:36:05 44° 321° (NW) 1,212 4.3 -23.0°
Enters shadow 17:41:22 14° 30° (NNE) 2,503 5.4 -23.9°
